GW4057 Weather Reports


time (UTC)temp
F
wind
direction
speed
knots
gust
knots
rain 1hr
in
rain 24hr
in
rain mn
in
humidity
%
barometer
mb
20260510081704 49 138 0.0 2.6 0.00 0.28 0.00 84 1011.2
20260510081204 49 94 0.0 2.6 0.00 0.28 0.00 85 1011.2
20260510080704 50 81 0.0 2.6 0.00 0.28 0.00 85 1010.8
20260510080203 50 107 0.0 2.6 0.00 0.28 0.00 85 1010.8
20260510075704 50 61 0.0 2.6 0.00 0.28 0.00 84 1010.8
20260510075204 50 42 1.7 2.6 0.00 0.28 0.00 84 1010.8
20260510074704 50 45 2.6 2.6 0.00 0.28 0.00 84 1010.8
20260510074204 50 20 1.7 2.6 0.00 0.28 0.00 85 1010.5
20260510073703 50 24 1.7 4.3 0.00 0.28 0.00 85 1010.5
20260510073203 51 51 1.7 4.3 0.00 0.28 0.00 86 1010.5
20260510072704 51 18 1.7 4.3 0.00 0.28 0.00 86 1010.5
20260510072204 51 67 0.0 7.8 0.00 0.28 0.00 86 1010.5
20260510071704 51 49 0.0 7.8 0.00 0.29 0.00 85 1010.5
20260510071204 51 63 1.7 7.8 0.00 0.29 0.00 85 1010.5
20260510070704 51 28 2.6 5.2 0.00 0.29 0.00 85 1010.2
20260510070204 51 26 2.6 4.3 0.00 0.29 0.00 85 1010.2
20260510065704 51 19 2.6 5.2 0.00 0.29 0.00 85 1010.2
20260510063704 52 11 4.3 7.0 0.00 0.29 0.00 88 1010.2
20260510063204 52 0 5.2 7.0 0.00 0.29 0.00 89 1010.2
20260510062704 52 9 2.6 6.1 0.00 0.29 0.00 88 1010.2
20260510062204 52 329 2.6 6.1 0.00 0.29 0.00 88 1010.2
20260510061704 53 9 2.6 6.1 0.00 0.29 0.00 89 1010.2
20260510060704 53 354 2.6 7.8 0.00 0.29 0.00 89 1009.8
20260510060204 54 13 3.5 7.8 0.00 0.29 0.00 88 1009.8
20260510055704 54 5 4.3 7.8 0.00 0.29 0.00 88 1009.8
20260510055204 55 312 2.6 5.2 0.00 0.29 0.00 89 1009.8
20260510054704 55 61 1.7 6.1 0.00 0.29 0.00 89 1009.8
20260510054204 55 123 0.9 7.0 0.00 0.29 0.00 89 1009.8
20260510053704 56 337 2.6 7.0 0.00 0.29 0.00 89 1009.8
20260510053203 56 1 3.5 7.8 0.00 0.29 0.00 91 1009.5
20260510052704 56 334 3.5 7.8 0.00 0.29 0.00 91 1009.5
20260510052204 56 298 3.5 7.8 0.00 0.29 0.00 92 1009.5
20260510051704 56 325 2.6 7.0 0.00 0.29 0.00 93 1009.1
20260510051204 56 280 2.6 8.7 0.00 0.29 0.00 93 1009.1
20260510050704 56 253 0.9 8.7 0.00 0.29 0.00 94 1009.1
20260510050204 55 266 5.2 8.7 0.00 0.29 0.00 94 1008.8
20260510045703 55 322 4.3 7.0 0.00 0.29 0.00 93 1008.1
20260510045204 56 238 2.6 5.2 0.00 0.29 0.00 93 1007.8
20260510044704 55 216 2.6 5.2 0.00 0.29 0.00 93 1007.8
20260510044204 55 209 3.5 5.2 0.00 0.29 0.00 93 1007.8
20260510043204 55 123 0.0 0.0 0.00 0.30 0.00 92 1007.5
20260510041204 56 235 1.7 6.1 0.00 0.32 0.00 92 1007.5
20260510040704 56 273 4.3 6.1 0.00 0.32 0.00 92 1007.5
20260510040204 56 190 2.6 6.1 0.00 0.32 0.00 92 1007.8
20260510035704 56 321 2.6 6.1 0.00 0.32 0.32 92 1007.8
20260510035204 57 233 1.7 7.0 0.00 0.32 0.32 91 1007.8
20260510034703 57 253 2.6 7.0 0.00 0.33 0.32 90 1007.8
20260510033704 57 231 4.3 7.8 0.00 0.33 0.32 90 1007.8
20260510033204 57 251 5.2 7.8 0.00 0.33 0.32 90 1007.8
20260510032704 56 235 4.3 7.0 0.00 0.33 0.32 90 1007.8
20260510032204 56 250 4.3 7.8 0.00 0.33 0.32 92 1007.8
20260510031203 55 240 4.3 7.8 0.00 0.33 0.32 94 1007.5
20260510030703 55 291 0.0 4.3 0.00 0.33 0.32 94 1007.5
20260510030204 55 160 0.0 5.2 0.00 0.33 0.32 95 1007.5
20260510025704 55 231 0.0 7.0 0.00 0.33 0.32 95 1007.5
20260510025204 56 211 1.7 7.0 0.00 0.33 0.32 95 1007.8
20260510024705 56 235 5.2 7.8 0.00 0.33 0.32 96 1008.1
20260510023704 56 225 4.3 7.8 0.00 0.33 0.32 97 1008.1
20260510023204 55 183 2.6 6.1 0.00 0.33 0.32 97 1007.8
20260510022704 55 175 0.0 4.3 0.00 0.34 0.32 97 1007.5
20260510022204 55 259 1.7 4.3 0.00 0.34 0.32 98 1007.1
20260510021704 55 264 0.9 4.3 0.00 0.34 0.32 98 1007.1
20260510020704 55 100 0.0 2.6 0.00 0.34 0.32 98 1007.5
20260510020204 55 227 2.6 4.3 0.00 0.34 0.32 98 1007.5
20260510015704 55 169 0.0 4.3 0.00 0.34 0.32 98 1007.2
20260510015204 55 173 1.7 4.3 0.00 0.34 0.32 98 1007.1
20260510014704 54 245 0.0 0.0 0.00 0.34 0.32 98 1007.5
20260510014204 55 162 0.0 0.0 0.00 0.34 0.32 98 1007.5
20260510013704 55 177 0.0 0.0 0.00 0.34 0.32 98 1007.1
20260510013204 55 231 0.0 0.0 0.00 0.34 0.32 98 1007.4
20260510012705 55 226 0.0 0.0 0.00 0.34 0.32 98 1007.1
20260510012204 55 160 0.0 0.0 0.00 0.34 0.32 98 1007.1
20260510011705 55 194 0.0 2.6 0.00 0.34 0.32 98 1007.1
20260510011204 55 148 0.0 4.3 0.00 0.34 0.32 97 1007.1
20260510010704 55 260 1.7 5.2 0.00 0.34 0.32 97 1007.1
20260510010204 55 189 2.6 5.2 0.00 0.34 0.32 97 1006.8
20260510005704 55 253 2.6 5.2 0.00 0.34 0.32 98 1006.8
20260510005205 55 194 0.0 4.3 0.00 0.34 0.32 98 1007.1
20260510004704 55 249 1.7 4.3 0.00 0.35 0.32 98 1007.1
20260510004204 56 219 0.9 4.3 0.01 0.35 0.32 98 1006.8
20260510003704 56 257 3.5 5.2 0.01 0.35 0.32 99 1007.1
20260510003205 56 231 2.6 5.2 0.01 0.35 0.32 99 1006.8
20260510002704 56 273 2.6 5.2 0.03 0.36 0.32 99 1006.8
20260510002204 56 226 1.7 4.3 0.04 0.36 0.32 99 1006.8
20260510001705 56 250 0.0 1.7 0.05 0.36 0.32 99 1006.8
20260510000204 55 253 0.0 6.1 0.09 0.37 0.32 99 1006.8
20260509235705 55 253 4.3 7.0 0.17 0.37 0.32 99 1006.8
20260509235204 55 252 4.3 7.0 0.25 0.38 0.32 99 1006.8
20260509234704 55 273 4.3 7.0 0.28 0.38 0.32 99 1006.8
20260509233705 55 232 2.6 7.8 0.27 0.38 0.31 99 1006.8
20260509233204 55 302 2.6 7.8 0.27 0.39 0.31 99 1007.4
20260509231704 55 247 5.2 10.4 0.23 0.36 0.27 99 1006.4
20260509230704 55 320 6.1 20.0 0.21 0.35 0.25 98 1006.8
20260509225204 63 75 12.2 15.6 0.03 0.18 0.07 74 1004.4
20260509224204 68 237 5.2 10.4 0.00 0.16 0.04 59 1004.1
20260509223704 68 302 6.1 10.4 0.00 0.17 0.04 59 1003.7
20260509223204 68 248 5.2 8.7 0.00 0.17 0.04 59 1004.0
20260509222704 68 147 4.3 8.7 0.00 0.18 0.04 58 1004.4
20260509221704 69 209 5.2 11.3 0.00 0.18 0.04 58 1004.4
20260509221204 69 236 7.8 11.3 0.00 0.20 0.04 58 1004.1
20260509220704 69 191 6.1 11.3 0.00 0.20 0.04 58 1004.4
20260509220205 69 162 7.8 11.3 0.00 0.20 0.04 58 1004.1
20260509215704 69 280 6.1 18.2 0.00 0.20 0.04 57 1004.1
20260509215204 70 267 7.0 18.2 0.00 0.20 0.04 57 1004.1
20260509214704 70 196 8.7 18.2 0.00 0.20 0.04 57 1004.1
20260509213204 70 223 6.1 12.2 0.00 0.20 0.04 59 1004.1
20260509212704 71 254 7.0 11.3 0.00 0.20 0.04 58 1004.1
20260509211704 70 250 7.8 15.6 0.00 0.20 0.04 57 1004.1
20260509211204 70 181 7.0 15.6 0.00 0.20 0.04 59 1004.1
20260509210704 70 267 5.2 15.6 0.00 0.20 0.04 60 1004.4
20260509210204 70 163 5.2 15.6 0.00 0.20 0.04 60 1004.4
20260509205704 70 226 10.4 17.4 0.00 0.20 0.04 60 1004.4
20260509205204 70 232 7.8 17.4 0.00 0.20 0.04 60 1004.4
20260509204705 70 203 5.2 17.4 0.00 0.20 0.04 60 1004.7
20260509203705 70 270 8.7 15.6 0.00 0.20 0.04 59 1004.7
20260509203204 69 272 6.1 13.9 0.00 0.20 0.04 59 1004.7
20260509202704 69 250 7.8 13.9 0.00 0.20 0.04 60 1005.1
20260509202204 71 220 7.0 13.9 0.00 0.20 0.04 57 1005.1
20260509201205 71 178 8.7 12.2 0.00 0.20 0.04 54 1005.1
20260509200704 70 202 7.8 12.2 0.00 0.20 0.04 56 1005.1
20260509200203 71 222 7.0 12.2 0.00 0.20 0.04 54 1005.1
20260509195704 71 251 8.7 12.2 0.00 0.20 0.04 58 1005.1
20260509195204 72 206 6.1 13.9 0.00 0.20 0.04 57 1005.1
20260509194704 71 247 5.2 13.9 0.00 0.20 0.04 60 1005.4
20260509194204 71 253 8.7 13.9 0.00 0.20 0.04 60 1005.4
20260509193704 70 265 4.3 13.9 0.00 0.20 0.04 60 1005.4
20260509193204 70 304 6.1 13.9 0.00 0.20 0.04 59 1005.4
20260509192704 69 231 10.4 13.0 0.00 0.20 0.04 61 1005.8
20260509192204 69 275 6.1 13.0 0.00 0.20 0.04 62 1005.8
20260509191204 68 228 5.2 13.0 0.00 0.20 0.04 63 1006.1
20260509190704 67 249 7.8 13.0 0.00 0.20 0.04 61 1006.1
20260509190204 68 296 7.8 11.3 0.00 0.20 0.04 63 1006.1
20260509185704 68 256 5.2 11.3 0.00 0.20 0.04 62 1006.1
20260509185204 67 267 7.0 11.3 0.00 0.20 0.04 63 1006.1
20260509184704 68 201 5.2 10.4 0.00 0.20 0.04 64 1006.4
20260509184204 67 261 5.2 12.2 0.00 0.20 0.04 64 1006.1
20260509183704 67 248 7.0 15.6 0.00 0.20 0.04 61 1006.4
20260509183203 68 197 8.7 15.6 0.00 0.20 0.04 60 1006.2
20260509182704 69 196 7.8 15.6 0.00 0.20 0.04 58 1006.1
20260509181704 70 189 8.7 14.8 0.00 0.20 0.04 60 1006.1
20260509180704 68 192 8.7 12.2 0.00 0.20 0.04 64 1006.1
20260509180204 67 244 6.1 12.2 0.00 0.20 0.04 65 1006.4
20260509175704 67 225 7.8 13.0 0.00 0.20 0.04 63 1006.4
20260509175204 66 209 5.2 13.0 0.00 0.20 0.04 64 1006.4
20260509174704 67 237 7.0 13.0 0.00 0.20 0.04 64 1006.4
20260509174204 67 271 5.2 13.0 0.00 0.20 0.04 63 1006.4
20260509173704 67 260 7.8 13.0 0.00 0.20 0.04 64 1006.4
20260509172704 67 156 6.1 7.8 0.00 0.20 0.04 65 1006.4
20260509172204 66 226 2.6 7.8 0.00 0.21 0.04 68 1006.4
20260509171704 65 217 7.8 8.7 0.00 0.21 0.04 68 1006.4
20260509171204 65 260 6.1 8.7 0.00 0.21 0.04 68 1006.4
20260509170704 66 233 3.5 8.7 0.00 0.21 0.04 68 1006.4
20260509170204 65 213 5.2 10.4 0.00 0.21 0.04 69 1006.4
20260509165704 66 204 6.1 10.4 0.00 0.21 0.04 68 1006.4
20260509165204 65 196 7.8 10.4 0.00 0.21 0.04 70 1006.1
20260509164705 65 182 8.7 10.4 0.00 0.21 0.04 68 1006.4
20260509164205 64 117 6.1 10.4 0.00 0.21 0.04 73 1006.4
20260509163705 63 246 5.2 10.4 0.00 0.21 0.04 70 1006.4
20260509162705 64 212 7.8 10.4 0.00 0.21 0.04 68 1006.8
20260509162205 65 245 4.3 11.3 0.00 0.21 0.04 72 1006.8
20260509161704 65 255 5.2 11.3 0.00 0.21 0.04 69 1006.8
20260509161205 64 153 5.2 11.3 0.00 0.21 0.04 73 1007.1
20260509160704 64 209 6.1 10.4 0.00 0.21 0.04 75 1007.1
20260509160205 64 106 4.3 8.7 0.00 0.21 0.04 75 1007.1
20260509155704 62 285 5.2 8.7 0.00 0.21 0.04 76 1007.1
20260509155205 61 268 7.0 8.7 0.00 0.21 0.04 80 1007.1
20260509154705 60 282 4.3 8.7 0.00 0.21 0.04 81 1007.1
20260509154204 61 245 5.2 8.7 0.00 0.21 0.04 80 1007.1
20260509153705 61 260 7.8 8.7 0.00 0.21 0.04 80 1007.1
20260509153205 61 247 4.3 7.0 0.00 0.21 0.04 80 1007.1
20260509152705 62 243 4.3 7.0 0.00 0.21 0.04 81 1007.1
20260509152205 61 281 2.6 7.0 0.00 0.21 0.04 85 1007.1
20260509151704 59 307 2.6 7.8 0.00 0.21 0.04 86 1007.1
20260509151205 58 274 6.1 7.8 0.00 0.21 0.04 87 1007.1
20260509145705 58 165 4.3 7.0 0.00 0.21 0.04 89 1007.1
20260509145205 58 225 6.1 7.0 0.00 0.21 0.04 90 1007.1
20260509144705 58 200 4.3 7.8 0.00 0.21 0.04 91 1007.1
20260509144204 57 243 5.2 8.7 0.00 0.21 0.04 90 1007.1
20260509143705 57 255 5.2 8.7 0.00 0.21 0.04 90 1007.1
20260509143204 57 272 3.5 8.7 0.00 0.21 0.04 92 1007.1
20260509142704 57 263 4.3 7.8 0.00 0.21 0.04 92 1007.1
20260509141705 57 255 3.5 7.0 0.00 0.21 0.04 94 1007.1
20260509141204 57 252 2.6 7.0 0.00 0.21 0.04 95 1007.1
20260509140204 57 249 4.3 7.0 0.00 0.21 0.04 95 1007.1
20260509135704 56 199 1.7 8.7 0.00 0.21 0.04 96 1007.1
20260509134704 55 237 5.2 8.7 0.00 0.21 0.04 97 1007.1
20260509134204 55 9 2.6 7.8 0.00 0.21 0.04 99 1007.1
20260509133704 55 166 3.5 7.0 0.00 0.21 0.04 99 1007.1
20260509133205 55 212 4.3 7.0 0.00 0.21 0.04 99 1007.1
20260509132705 55 226 1.7 5.2 0.00 0.21 0.04 99 1007.1
20260509131705 55 200 0.9 6.1 0.00 0.21 0.04 99 1007.1
20260509131205 54 239 1.7 6.1 0.00 0.22 0.04 99 1007.1
20260509130704 54 253 1.7 6.1 0.00 0.22 0.04 99 1007.1
20260509125705 54 164 0.0 5.2 0.00 0.23 0.04 99 1007.1
20260509125204 54 179 0.9 5.2 0.00 0.23 0.04 99 1007.1
20260509124704 54 194 0.9 6.1 0.00 0.23 0.04 99 1007.5
20260509124204 54 230 1.7 7.0 0.00 0.23 0.04 99 1007.5
20260509123704 54 252 1.7 7.0 0.00 0.23 0.04 99 1007.5
20260509123204 54 153 5.2 7.0 0.00 0.23 0.04 99 1007.5
20260509122704 54 227 1.7 5.2 0.00 0.23 0.04 99 1007.5
20260509122205 54 184 0.0 5.2 0.00 0.23 0.04 99 1007.5
20260509121704 53 237 2.6 4.3 0.00 0.23 0.04 99 1007.5
20260509120704 53 249 0.0 2.6 0.00 0.23 0.04 99 1007.5
20260509120204 53 268 0.9 2.6 0.00 0.23 0.04 99 1007.5
20260509115704 53 189 0.9 2.6 0.00 0.23 0.04 99 1007.5
20260509115205 53 225 0.0 2.6 0.00 0.23 0.04 99 1007.5
20260509114705 53 152 0.0 2.6 0.00 0.23 0.04 99 1007.7
20260509114205 52 206 0.0 2.6 0.00 0.23 0.04 99 1007.5
20260509113704 52 320 0.0 5.2 0.00 0.23 0.04 99 1007.5
20260509113204 52 134 0.0 5.2 0.00 0.23 0.04 99 1007.5
20260509112704 52 162 0.9 5.2 0.00 0.23 0.04 99 1007.5
20260509111704 52 192 0.0 0.9 0.00 0.23 0.04 99 1007.5
20260509111204 52 160 0.0 2.6 0.00 0.23 0.04 99 1007.5
20260509110704 52 170 0.0 2.6 0.00 0.23 0.04 99 1007.5
20260509110204 52 179 0.9 2.6 0.00 0.23 0.04 99 1007.5
20260509105704 52 172 0.0 0.0 0.00 0.23 0.04 99 1007.5
20260509105205 52 149 0.0 0.0 0.00 0.23 0.04 99 1007.5
20260509104704 52 140 0.0 1.7 0.00 0.23 0.04 99 1007.1
20260509104204 52 167 0.0 1.7 0.00 0.23 0.04 99 1007.1
20260509103704 52 161 0.9 1.7 0.00 0.23 0.04 99 1007.1
20260509103204 52 159 0.0 2.6 0.00 0.23 0.04 99 1007.5
20260509102704 52 141 0.0 2.6 0.00 0.23 0.04 99 1007.1
20260509102204 52 168 0.0 2.6 0.00 0.23 0.04 99 1007.1
20260509101704 52 160 0.0 2.6 0.00 0.23 0.04 99 1007.1
20260509101204 52 118 0.0 2.6 0.00 0.23 0.04 99 1007.4
20260509100704 52 181 1.7 2.6 0.00 0.23 0.04 99 1007.5
20260509100204 52 162 1.7 2.6 0.00 0.23 0.04 99 1007.5
20260509095704 52 162 2.6 2.6 0.00 0.23 0.04 99 1007.5
20260509095204 52 152 0.0 2.6 0.00 0.23 0.04 99 1007.5
20260509094704 52 162 0.0 4.3 0.00 0.23 0.04 99 1007.5
20260509094205 52 163 0.9 4.3 0.00 0.23 0.04 99 1007.5
20260509093704 52 148 0.0 5.2 0.00 0.23 0.04 99 1007.5
20260509093204 52 172 0.9 5.2 0.00 0.23 0.04 99 1007.5
20260509091704 52 156 0.0 4.3 0.00 0.23 0.04 99 1007.8
20260509091204 52 198 1.7 4.3 0.00 0.23 0.04 99 1007.8
20260509090704 52 213 0.9 5.2 0.00 0.23 0.04 99 1007.8
20260509085204 52 199 0.9 5.2 0.00 0.23 0.04 99 1007.8
20260509084705 52 171 1.7 2.6 0.00 0.23 0.04 99 1007.8
20260509084204 52 216 0.9 2.6 0.00 0.23 0.04 99 1008.1
20260509083705 51 159 0.0 2.6 0.00 0.23 0.04 99 1007.8
20260509082704 51 166 1.7 4.3 0.00 0.23 0.04 99 1007.8
20260509082205 51 175 2.6 7.0 0.00 0.23 0.04 99 1007.8